STARLINK-35230, 65681

Orbit data source: Space-Track

STARLINK-35230, 65681 is a payload satellite owned by SpaceX/Seattle (US) in LEO that was launched on Sun, 21 Sep 2025 UTC via an FALCON 9 launch vehicle from the Air Force Eastern Test Range (AFETR). Payload-class satellites include a variety of spacecraft equipped with specific instruments for various scientific and technological missions. These include communications satellites like Starlink; space stations such as the ISS; scientific satellites like the Hubble; Earth observation satellites from companies like Planet Labs, Umbra, and HawkEye 360; GPS; miniature CubeSats for education and research; and military/defense satellites.

Loading next visibility...
Identifier
65681, 2025-212F
Orbit
LEO
Country
Flag of USUS
Related business
Manufacturer
SpaceX/Seattle
Mission
Operational Commercial Communications
Bus & Motor
STARLINK V2MO, Unknown motor
Mass
575 kg wet, ~530 kg dry
Launch date (UTC)
2025-09-21 (9 months ago)
Launch vehicle
FALCON 9
Launch site
Air Force Eastern Test Range (AFETR)
Object type
Payload
Rocket body
Debris
Shape & HBR
Box + 2 Pan, 17.7 m
Radar Cross Section
36.964 m², Large (>1 m²)

Expand to show TLE details & history
Last TLE update: 10 hours ago

TLE from 10 hours ago
0 STARLINK-35230
1 65681U 25212F   26171.44854388  .00006478  00000-0  20258-3 0  9994
2 65681  53.1582 227.8576 0001054  68.9902 291.1213 15.34418134 42990
Epoch: 2026-06-20T10:45Z
TLE epoch observation values (Epoch: 2026-06-20T10:45:54.191Z)
Latitude
-0.00003°
Longitude
157.71876°
Altitude
463.291 km
Speed
7.636 km/s
True Right ascension
15h 11m 25s
True Declination
0° 00' 00"
Sunlit
Object was in full shadow at epoch
Visualization orbit readout
Latitude
Unknown
Longitude
Unknown
Altitude
Unknown
Speed
Unknown
Apparent Right ascension
Unknown
Apparent Declination
Unknown
Sunlit
N/A
Visualization observer readout
Local Sidereal Time
07:16:37
Azimuth
Unknown
Elevation
Unknown
Doppler factor
Unknown
Orbital elements
Apogee altitude
463.628 km
Perigee altitude
462.185 km
Semi-major axis
6,841.044 km
Eccentricity
0.00011
Inclination
53.1582°
RAAN
227.8576°
Arg. of periapsis
68.9902°
True anomaly
291.11003°
Mean anomaly
291.1213°
Eccentric anomaly
291.11567°
Mean motion
3.83583 °/min
Orbital period
93.85 mins
BSTAR
0.00020258
Loading maneuver chart data...
Computing Atmospheric mass density...
Loading historical data...
Loading historical data...
Loading historical data...
Loading historical data...
Loading historical data...
Loading historical data...
Loading historical data...

Documentation

Showing up to 5 results
|